Alexandria, LA

11:32 PM CDT on June 28, 2017 (GMT -0500)
Alexandria International

Weather History for KAEX - April, 2013

Change the Weather History Date:

Sunday, April 14, 2013

  Actual Average Record
Temperature  
Mean Temperature 68 °F 66 °F  
Max Temperature 78 °F 78 °F 89 °F (1932)
Min Temperature 58 °F 54 °F 36 °F (1909)
Degree Days  
Heating Degree Days 0 2  
Month to date heating degree days 61 48  
Since 1 July heating degree days 1800 1928  
Cooling Degree Days 3 3  
Month to date cooling degree days 22 38  
Year to date cooling degree days 56 91  
Growing Degree Days 17 (Base 50)    
Moisture  
Dew Point 59 °F    
Average Humidity 78    
Maximum Humidity 100    
Minimum Humidity 56    
Precipitation  
Precipitation 0.01 in 0.14 in 3.60 in (1933)
Month to date precipitation 2.16 2.50  
Year to date precipitation 20.00 17.23  
Snow  
Snow 0.00 in - 0.00 in ()
Month to date snowfall 0.0  
Since 1 July snowfall 0.0  
Snow Depth 0.00 in    
Sea Level Pressure  
Sea Level Pressure 29.77 in    
Wind  
Wind Speed 7 mph (SE)    
Max Wind Speed 24 mph    
Max Gust Speed 31 mph    
Visibility 10 miles    
Events Rain , Thunderstorm    
T = Trace of Precipitation, MM = Missing Value Source: NWS Daily Summary

Daily Weather History Graph

Daily Weather History Graph

Search for Another Location

Airport or City:

Trip Planner

Search our weather history database for the weather conditions in past years. The results will help you decide how hot, cold, wet, or windy it might be!

Date:

Astronomy

Apr. 14, 2013 Rise Set
Actual Time 6:42 AM CDT 7:38 PM CDT
Civil Twilight 6:18 AM CDT 8:03 PM CDT
Nautical Twilight 5:48 AM CDT 8:32 PM CDT
Astronomical Twilight 5:18 AM CDT 9:02 PM CDT
Moon 9:31 AM CDT (4/14) 11:40 PM CDT (4/14)
Length of Visible Light 13h 45m
Length of Day
12h 55m
Waxing Crescent, 17% of the Moon is Illuminated
Apr 14
Waxing Crescent
Apr 18
First Quarter
Apr 25
Full
May 2
Last Quarter
May 9
New

Hourly Weather History & Observations

Time (CDT) Temp. Dew Point Humidity Pressure Visibility Wind Dir Wind Speed Gust Speed Precip Events Conditions
12:53 AM 63.0 °F 51.1 °F 65% 29.81 in 10.0 mi ESE 4.6 mph - N/A   Clear
1:53 AM 63.0 °F 51.1 °F 65% 29.81 in 10.0 mi ESE 11.5 mph - N/A   Scattered Clouds
2:44 AM 62.6 °F 51.8 °F 68% 29.76 in 10.0 mi ESE 24.2 mph 29.9 mph 0.00 in Rain , Thunderstorm Light Thunderstorms and Rain
2:53 AM 61.0 °F 53.1 °F 75% 29.78 in 10.0 mi SE 24.2 mph 31.1 mph 0.00 in Rain , Thunderstorm Light Rain
3:18 AM 57.2 °F 53.6 °F 88% 29.77 in 10.0 mi SSE 11.5 mph - 0.01 in Rain , Thunderstorm Light Rain
3:39 AM 57.2 °F 55.4 °F 94% 29.74 in 10.0 mi East 13.8 mph - 0.01 in Rain Light Rain
3:53 AM 57.9 °F 55.0 °F 90% 29.77 in 10.0 mi SE 12.7 mph - 0.01 in Rain Light Rain
4:07 AM 57.2 °F 55.4 °F 94% 29.75 in 10.0 mi SE 11.5 mph - N/A   Overcast
4:53 AM 59.0 °F 57.0 °F 93% 29.76 in 10.0 mi SE 8.1 mph - N/A   Overcast
5:53 AM 59.0 °F 57.0 °F 93% 29.75 in 10.0 mi ENE 3.5 mph - N/A   Overcast
6:53 AM 59.0 °F 57.9 °F 96% 29.78 in 10.0 mi North 4.6 mph - N/A   Overcast
7:53 AM 59.0 °F 57.9 °F 96% 29.79 in 10.0 mi NE 3.5 mph - N/A   Overcast
8:53 AM 60.1 °F 57.9 °F 93% 29.81 in 10.0 mi Calm Calm - N/A   Overcast
9:53 AM 62.1 °F 59.0 °F 90% 29.81 in 10.0 mi Calm Calm - 0.00 in   Overcast
10:50 AM 64.4 °F 60.8 °F 88% 29.81 in 10.0 mi South 5.8 mph - N/A   Overcast
10:53 AM 64.9 °F 61.0 °F 87% 29.82 in 10.0 mi SSE 5.8 mph - N/A   Overcast
11:53 AM 66.9 °F 62.1 °F 84% 29.81 in 10.0 mi SSE 6.9 mph - N/A   Overcast
12:53 PM 69.1 °F 62.1 °F 78% 29.81 in 10.0 mi SSE 8.1 mph - N/A   Overcast
1:53 PM 71.1 °F 63.0 °F 75% 29.78 in 10.0 mi South 8.1 mph - N/A   Overcast
2:53 PM 73.0 °F 63.0 °F 71% 29.75 in 10.0 mi South 5.8 mph - N/A   Overcast
3:19 PM 73.4 °F 62.6 °F 69% 29.72 in 10.0 mi South 6.9 mph - N/A   Mostly Cloudy
3:53 PM 75.0 °F 63.0 °F 66% 29.73 in 10.0 mi SSE 8.1 mph - N/A   Mostly Cloudy
4:53 PM 77.0 °F 60.1 °F 56% 29.71 in 10.0 mi South 6.9 mph - N/A   Scattered Clouds
5:53 PM 75.9 °F 63.0 °F 64% 29.71 in 10.0 mi SE 8.1 mph - N/A   Scattered Clouds
6:53 PM 73.0 °F 62.1 °F 68% 29.71 in 10.0 mi SSE 6.9 mph - N/A   Clear
7:53 PM 70.0 °F 62.1 °F 76% 29.72 in 10.0 mi South 4.6 mph - N/A   Clear
8:53 PM 66.9 °F 62.1 °F 84% 29.74 in 10.0 mi SSE 3.5 mph - N/A   Clear
9:53 PM 63.0 °F 61.0 °F 93% 29.77 in 10.0 mi SSE 4.6 mph - N/A   Clear
10:53 PM 64.0 °F 62.1 °F 93% 29.78 in 10.0 mi SSE 3.5 mph - N/A   Clear
11:53 PM 60.1 °F 60.1 °F 100% 29.78 in 9.0 mi SE 4.6 mph - N/A   Clear